{"data":{"norad_id":62510,"epoch":"2026-09-21T11:18:46.436256Z","epoch_age_seconds":90570,"freshness":"FRESH","line1":"1 62510U 25003Z   26264.47137079  .00014382  00000+0  53087-3 0  9995","line2":"2 62510  43.0014 263.3154 0001363 278.9976  81.0721 15.27596728 96492","mean_motion":15.27596728,"eccentricity":0.0001363,"inclination_deg":43.0014,"raan_deg":263.3154,"arg_perigee_deg":278.9976,"mean_anomaly_deg":81.0721,"bstar":0.00053087,"rev_number":9649,"period_min":94.265716442409,"perigee_km":482.06383400914,"apogee_km":483.93417968461,"semimajor_km":6861.1360068469,"source":"CELESTRAK","updated_at":"2026-09-22T09:00:49.621014Z"}}